Olathe, KS

7:13 PM CDT on July 21, 2017 (GMT -0500)
Johnson County Executive

Weather History for KOJC - February, 2011

Change the Weather History Date:

Thursday, February 10, 2011

  Actual Average Record
Temperature  
Mean Temperature 10 °F 33 °F  
Max Temperature 25 °F 43 °F 73 °F (1999)
Min Temperature -5 °F 24 °F -5 °F (1982)
Degree Days  
Heating Degree Days 55 32  
Month to date heating degree days 505 327  
Since 1 July heating degree days 3601 3375  
Cooling Degree Days 0 0  
Month to date cooling degree days 0 0  
Year to date cooling degree days 0 0  
Moisture  
Dew Point 0 °F    
Average Humidity 63    
Maximum Humidity 87    
Minimum Humidity 39    
Precipitation  
Precipitation 0.00 in 0.06 in 0.95 in (2009)
Month to date precipitation 0.02 0.55  
Year to date precipitation 0.21 1.67  
Sea Level Pressure  
Sea Level Pressure 30.22 in    
Wind  
Wind Speed 8 mph (SW)    
Max Wind Speed 17 mph    
Max Gust Speed 23 mph    
Visibility 10 miles    
Events      
T = Trace of Precipitation, MM = Missing Value Source: NWS Daily Summary

Daily Weather History Graph

Daily Weather History Graph

Search for Another Location

Airport or City:

Trip Planner

Search our weather history database for the weather conditions in past years. The results will help you decide how hot, cold, wet, or windy it might be!

Date:

Astronomy

Feb. 10, 2011 Rise Set
Actual Time 7:16 AM CST 5:50 PM CST
Civil Twilight 6:48 AM CST 6:18 PM CST
Nautical Twilight 6:17 AM CST 6:49 PM CST
Astronomical Twilight 5:46 AM CST 7:20 PM CST
Moon 10:34 AM CST (2/10) 12:24 AM CST (2/10)
Length of Visible Light 11h 29m
Length of Day
10h 34m
Waxing Crescent, 45% of the Moon is Illuminated
Feb 10
Waxing Crescent
Feb 11
First Quarter
Feb 18
Full
Feb 24
Last Quarter
Mar 4
New

Hourly Weather History & Observations

Time (CST) Temp. Windchill Dew Point Humidity Pressure Visibility Wind Dir Wind Speed Gust Speed Precip Events Conditions
12:53 AM 6.1 °F -2.8 °F -0.9 °F 73% 30.36 in 10.0 mi West 4.6 mph - N/A   Clear
1:53 AM 3.9 °F -5.3 °F -2.0 °F 76% 30.35 in 10.0 mi WSW 4.6 mph - N/A   Clear
2:53 AM -0.9 °F -8.9 °F -5.1 °F 83% 30.34 in 10.0 mi SW 3.5 mph - N/A   Clear
4:53 AM -4.0 °F -14.6 °F -8.0 °F 83% 30.30 in 10.0 mi SW 4.6 mph - N/A   Clear
5:53 AM -2.0 °F -13.9 °F -7.1 °F 79% 30.29 in 10.0 mi SW 5.8 mph - N/A   Clear
6:53 AM -2.0 °F -15.4 °F -8.0 °F 76% 30.28 in 10.0 mi SW 6.9 mph - N/A   Clear
7:53 AM -5.1 °F -20.4 °F -9.0 °F 83% 30.26 in 10.0 mi SSW 8.1 mph - N/A   Clear
8:53 AM -0.9 °F -15.3 °F -7.1 °F 75% 30.27 in 10.0 mi SSW 8.1 mph - N/A   Clear
9:53 AM 6.1 °F -7.8 °F -2.9 °F 67% 30.27 in 10.0 mi SSW 9.2 mph - N/A   Clear
10:53 AM 14.0 °F -0.8 °F -2.9 °F 47% 30.27 in 10.0 mi WSW 13.8 mph 19.6 mph N/A   Clear
11:53 AM 18.0 °F 5.4 °F -0.9 °F 44% 30.24 in 10.0 mi SW 11.5 mph - N/A   Clear
12:53 PM 21.9 °F 8.7 °F -0.0 °F 38% 30.20 in 10.0 mi WSW 15.0 mph 23.0 mph N/A   Clear
1:53 PM 23.0 °F 13.1 °F 3.0 °F 42% 30.17 in 10.0 mi WSW 9.2 mph 16.1 mph N/A   Clear
2:53 PM 25.0 °F 14.8 °F 6.1 °F 45% 30.16 in 10.0 mi SW 10.4 mph - N/A   Clear
3:53 PM 24.1 °F 13.7 °F 7.0 °F 48% 30.16 in 10.0 mi SW 10.4 mph - N/A   Clear
4:53 PM 21.9 °F 13.4 °F 5.0 °F 48% 30.17 in 10.0 mi SSW 6.9 mph - N/A   Clear
5:53 PM 19.9 °F 10.1 °F 6.1 °F 55% 30.16 in 10.0 mi SSW 8.1 mph - N/A   Clear
6:53 PM 19.0 °F 11.1 °F 6.1 °F 57% 30.17 in 10.0 mi SSW 5.8 mph - N/A   Clear
7:53 PM 18.0 °F 7.7 °F 6.1 °F 60% 30.16 in 10.0 mi SSW 8.1 mph - N/A   Clear
8:53 PM 19.0 °F 11.1 °F 3.9 °F 52% 30.16 in 10.0 mi SW 5.8 mph - N/A   Clear
9:53 PM 18.0 °F 6.9 °F 3.0 °F 52% 30.15 in 10.0 mi SW 9.2 mph - N/A   Clear
10:53 PM 17.1 °F 4.3 °F 1.9 °F 52% 30.13 in 10.0 mi SW 11.5 mph - N/A   Clear
11:53 PM 16.0 °F 3.6 °F 1.9 °F 54% 30.12 in 10.0 mi SW 10.4 mph - N/A   Clear